Find SBSS 1

NORAD ID: 37168 Int'l Des: 2010-048 Owner: AFSMC Country: US Constellation: satellogic operational
LEOCIRCULARRETROGRADESSO

リアルタイム位置

3D地球を読み込み中...

SBSS 1について

説明を読み込み中...

次回通過

Passes for default location (London). Set your location on the main map for personalized predictions.

高度履歴

Loading altitude history...

軌道要素

1 37168U 10048A 26134.23314299 .00002709 00000-0 13258-3 0 9997
2 37168 97.7380 19.0291 0080322 321.6759 189.7709 15.16314632847328
Epoch: May 14, 2026 • Age: 58 hours

現在のステータス

高度 476.1 km
速度 7.66 km/s
衛星直下点 -35.69°S, 77.86°W
打ち上げ日 Sep 26, 2010
運用期間 15.6 years
タイプ other

技術仕様

分類 Payload
質量 1031.00 kg
乾燥質量 900.00 kg
総質量 1031.00 kg
長さ 3.00 m
直径 2.00 m
スパン 10.00 m
形状 Box + 2 Pan
製造者 BALL/BOSB
バスタイプ BCP-2000
フェーズステータス In Orbit
所有者/国 AFSMC/US

Most Searched